Location: Newark
(30.1000°N, 109.4667°E)
Time: 12:46:49
(UTC+00:00)

Vanguard 2 Rocket - Pass Details

Date: 27 February 2020
Orbit: 554 x 3326 km, 32.9° (Epoch: 05 April)

Event Time Altitude Azimuth Distance (km) Brightness Sun altitude
Rises 13:29:46 0° 273° (W) 7,286 12.4 -37.5°
Reaches altitude 10° 13:34:57 10° 274° (W) 6,144 11.8 -38.6°
Maximum altitude 13:53:44 80° 2° (N) 2,417 8.7 -42.5°
Enters shadow 13:54:17 79° 27° (NNE) 2,389 8.7 -42.6°
